User: anonymous   Login
Location: Ostrava
(49.8330°N, 18.2830°E)
Time: 04:52:21
(UTC+01:00)
Language:

NOAA 19 - Orbit

View from above orbital plane
View from above orbital plane
View from above satellite
View from above satellite

Ground track
Ground track

The orbit data is extracted from the following two-line orbital elements,

1 33591U 09005A   17054.55134921  .00000119  00000-0  89677-4 0  9994
2 33591  99.0780  19.8524 0013150 229.5045 130.4981 14.12155514414613
Epoch (UTC): 23 February 2017 13:13:56
Eccentricity: 0.0013150
inclination: 99.0780°
perigee height: 842 km
apogee height: 861 km
right ascension of ascending node: 19.8524°
argument of perigee: 229.5045°
revolutions per day: 14.12155514
mean anomaly at epoch: 130.4981°
orbit number at epoch: 41461

The dashed part of the orbit path shows where the satellite is in the earth's shadow,  

DLR